This is the latest recevied weather packets stored in our database for station/object KC8BSD. If no packets are shown the sender has not sent any weather packets the latest 10 day(s).
| Time | Temp. | Humidity | Pressure | Rain* | Wind** | Luminosity | Snow |
|---|---|---|---|---|---|---|---|
| 1778103449 | 12.22° C | 46% | 1013.9 hPa | 0 mm | - | 209 W/m² | - |
| 1778103145 | 12.22° C | 45% | 1013.7 hPa | 0 mm | - | 160 W/m² | - |
| 1778102837 | 12.78° C | 43% | 1013.8 hPa | 0 mm | - | 212 W/m² | - |
| 1778102533 | 12.22° C | 46% | 1013.9 hPa | 0 mm | - | 411 W/m² | - |
| 1778102228 | 12.22° C | 48% | 1013.7 hPa | 0 mm | - | 189 W/m² | - |
| 1778101925 | 11.67° C | 45% | 1013.8 hPa | 0 mm | - | 239 W/m² | - |
| 1778101622 | 11.67° C | 47% | 1013.9 hPa | 0 mm | - | 177 W/m² | - |
| 1778101319 | 11.67° C | 46% | 1013.8 hPa | 0 mm | - | 176 W/m² | - |
| 1778101016 | 11.67° C | 46% | 1013.8 hPa | 0 mm | - | 173 W/m² | - |
| 1778100711 | 12.22° C | 45% | 1014 hPa | 0 mm | - | 181 W/m² | - |
| 1778100409 | 12.22° C | 45% | 1013.8 hPa | 0 mm | - | 172 W/m² | - |
| 1778100105 | 12.22° C | 45% | 1013.9 hPa | 0 mm | - | 280 W/m² | - |
| 1778099804 | 11.67° C | 47% | 1013.7 hPa | 0 mm | - | 194 W/m² | - |
| 1778099500 | 11.67° C | 47% | 1013.9 hPa | 0 mm | - | 176 W/m² | - |
| 1778099198 | 11.67° C | 45% | 1013.9 hPa | 0 mm | - | 194 W/m² | - |
| 1778098894 | 12.22° C | 46% | 1013.9 hPa | 0 mm | - | 191 W/m² | - |
| 1778098591 | 11.67° C | 47% | 1013.8 hPa | 0 mm | - | 291 W/m² | - |
| 1778098287 | 11.67° C | 45% | 1013.6 hPa | 0 mm | - | 284 W/m² | - |
| 1778097984 | 11.67° C | 47% | 1014 hPa | 0 mm | - | 201 W/m² | - |
| 1778097681 | 11.67° C | 46% | 1014.1 hPa | 0 mm | - | 190 W/m² | - |
| 1778097378 | 11.67° C | 46% | 1014 hPa | 0 mm | - | 178 W/m² | - |
| 1778097074 | 11.67° C | 45% | 1014 hPa | 0 mm | - | 221 W/m² | - |
| 1778096772 | 11.67° C | 46% | 1014.1 hPa | 0 mm | - | 246 W/m² | - |
| 1778096468 | 11.67° C | 45% | 1014.2 hPa | 0 mm | - | 313 W/m² | - |
| 1778096166 | 12.22° C | 45% | 1014.2 hPa | 0 mm | - | 638 W/m² | - |
* Rain latest hour (hover to see other rain measurements)
** Current wind speed in m/s (hover to see current wind gust speed)